This is the latest recevied weather packets stored in our database for station/object SP1BMW-13. If no packets are shown the sender has not sent any weather packets the latest 10 day(s).
| Time | Temp. | Humidity | Pressure | Rain* | Wind** | Luminosity | Snow |
|---|---|---|---|---|---|---|---|
| 1787404021 | 20° C | 53% | 1010.4 hPa | 0 mm | 1.79 m/s, 218° | 285 W/m² | - |
| 1787403962 | 20° C | 53% | 1010.3 hPa | 0 mm | 1.79 m/s, 89° | 270 W/m² | - |
| 1787403904 | 20° C | 54% | 1010.5 hPa | 0 mm | 2.68 m/s, 246° | 261 W/m² | - |
| 1787403842 | 20° C | 54% | 1010.2 hPa | 0 mm | 1.34 m/s, 248° | 264 W/m² | - |
| 1787403782 | 20° C | 54% | 1010.3 hPa | 0 mm | 1.34 m/s, 230° | 273 W/m² | - |
| 1787403722 | 19.44° C | 53% | 1010.5 hPa | 0 mm | 3.13 m/s, 224° | 287 W/m² | - |
| 1787403662 | 19.44° C | 55% | 1010.4 hPa | 0 mm | 2.24 m/s, 286° | 307 W/m² | - |
| 1787403602 | 19.44° C | 56% | 1010.5 hPa | 0 mm | 1.79 m/s, 178° | 333 W/m² | - |
| 1787403542 | 19.44° C | 56% | 1010.5 hPa | 0 mm | 2.24 m/s, 191° | 356 W/m² | - |
| 1787403482 | 19.44° C | 55% | 1010.4 hPa | 0 mm | 2.68 m/s, 254° | 354 W/m² | - |
| 1787403421 | 19.44° C | 56% | 1010.4 hPa | 0 mm | 1.79 m/s, 306° | 698 W/m² | - |
| 1787403362 | 20° C | 55% | 1010.3 hPa | 0 mm | 2.24 m/s, 126° | 285 W/m² | - |
| 1787403302 | 20° C | 54% | 1010.3 hPa | 0 mm | 2.68 m/s, 268° | 237 W/m² | - |
| 1787403242 | 20° C | 54% | 1010.4 hPa | 0 mm | 2.24 m/s, 248° | 182 W/m² | - |
| 1787403182 | 20.56° C | 53% | 1010.4 hPa | 0 mm | 1.79 m/s, 256° | 165 W/m² | - |
| 1787403122 | 20.56° C | 53% | 1010.3 hPa | 0 mm | 2.24 m/s, 137° | 159 W/m² | - |
| 1787403062 | 20.56° C | 53% | 1010.5 hPa | 0 mm | 1.79 m/s, 231° | 163 W/m² | - |
| 1787403002 | 20.56° C | 53% | 1010.5 hPa | 0 mm | 3.13 m/s, 276° | 181 W/m² | - |
| 1787402942 | 20.56° C | 52% | 1010.4 hPa | 0 mm | 1.79 m/s, 276° | 193 W/m² | - |
| 1787402881 | 20.56° C | 52% | 1010.3 hPa | 0 mm | 2.24 m/s, 260° | 302 W/m² | - |
| 1787402821 | 20.56° C | 52% | 1010.3 hPa | 0 mm | 2.68 m/s, 225° | 604 W/m² | - |
| 1787402761 | 21.11° C | 52% | 1010.1 hPa | 0 mm | 3.13 m/s, 217° | 648 W/m² | - |
| 1787402702 | 21.11° C | 53% | 1010.2 hPa | 0 mm | 2.24 m/s, 259° | 538 W/m² | - |
| 1787402641 | 21.11° C | 52% | 1010.1 hPa | 0 mm | 0.89 m/s, 236° | 550 W/m² | - |
| 1787402581 | 21.11° C | 51% | 1010.2 hPa | 0 mm | 1.79 m/s, 213° | 263 W/m² | - |
* Rain latest hour (hover to see other rain measurements)
** Current wind speed in m/s (hover to see current wind gust speed)